METEOR 2-6 DEB, 28986

Orbit data source: Space-Track

METEOR 2-6 DEB, 28986 is space debris in LEO originally from a launch on Tue, 09 Sep 1980 UTC launched from the Plesetsk Missile And Space Complex (PKMTR). Debris objects in space refer to the collection of defunct objects orbiting the Earth. Examples of debris include non-operational satellites, rocket bodies, and fragments generated from explosions, collisions, or faulty payload assembly.

Loading next visibility...
METEOR 2-6 DEB details
Identifier
28986, 1980-073C
Orbit
LEO
Last TLE update6 days ago
Origin
Flag of CISKVR (CIS)
ManufacturerUnknown
MissionSpacecraft
Bus & MotorUnknown
MassUnknown
Launch date (UTC)
1980-09-09 (44 years ago)
Launch vehicleUnknown
Launch site
Plesetsk Missile And Space Complex (PKMTR)
Object type
Payload
Rocket body
Debris
Shape & HBRUnknown
Radar Cross SectionSmall (<0.1 m²)

Expand to show TLE details & history

TLE from 6 days ago
0 METEOR 2-6 DEB
1 28986U 80073C   24355.05692250  .00017325  00000-0  45373-2 0  9991
2 28986  81.2065 117.9661 0030174 225.4176 134.4553 14.48942198 34406
Epoch: 2024-12-20T01:21Z
Definitive object data (Epoch: 2024-12-20T01:21:58.104Z)
Latitude-0.00004°
Longitude8.34609°
Altitude747.112 km
Speed7.473 km/s
True Right ascension07h 51m 51s
True Declination0° 00' 00"
Sunlit
Object was in full shadow at TLE epoch
Visualization TLE readout
Latitude-39.02425°
Longitude-171.22218°
Altitude722.397 km
Speed7.504 km/s
Apparent Right ascension21h 44m 37s
Apparent Declination-43° 15' 08"
Sunlit
Object is in daylight
Visualization observer readout
Local Sidereal Time11:51:18
Azimuth108.479° ESE
Elevation-66.221°
Doppler factor1
Orbital elements
Apogee altitude747.666 km
Perigee altitude704.793 km
Semi-major axis7,104.367 km
Eccentricity0.0030174
Inclination81.2065°
RAAN117.9661°
Arg. of periapsis225.4176°
True anomaly134.70146°
Mean anomaly134.4553°
Eccentric anomaly134.57844°
Mean motion3.62456 °/min
BSTAR0.0045373
Orbital period99.32 mins
Loading maneuver chart data...
Loading historical data...
Loading historical data...
Loading historical data...
Loading historical data...
Loading historical data...
Loading historical data...
Loading historical data...

METEOR 2-6 DEB Visibility forecast

Observer location: undefined°, undefined

Span
Click to sort rows by Start time (UTC) header in descending order
Start Az.
Max El. time (UTC)
Max El. Az.
Max El.
End time (UTC)
End Az.
8 mins2024-12-26 18:40:47.129Z12.056° NNE2024-12-26 18:44:47.129Z68.067° E27.182°2024-12-26 18:48:47.129Z132.285° SE
6 mins2024-12-26 20:22:47.129Z310.336° NW2024-12-26 20:24:47.129Z278.175° WNW23.084°2024-12-26 20:28:47.129Z218.349° SW
6 mins2024-12-27 07:30:47.129Z131.938° SE2024-12-27 07:33:47.129Z80.75° E24.075°2024-12-27 07:36:47.129Z39.14° NE
7 mins2024-12-27 09:10:47.129Z237.827° WSW2024-12-27 09:13:47.129Z292.866° NW27.444°2024-12-27 09:17:47.129Z347.724° N
|